Weather History for Rolla, MO

Change the Weather History Date:

Friday, September 13, 2013

  Actual Average Record
Temperature  
Mean Temperature 65 °F 69 °F  
Max Temperature 80 °F 80 °F 96 °F (1956)
Min Temperature 50 °F 58 °F 34 °F (1902)
Degree Days  
Heating Degree Days 0 1  
Month to date heating degree days 0 7  
Since 1 July heating degree days 4 10  
Cooling Degree Days 0 5  
Month to date cooling degree days 134 87  
Year to date cooling degree days 1033 1164  
Growing Degree Days 14 (Base 50)    
Moisture  
Dew Point 47 °F    
Average Humidity 59    
Maximum Humidity 86    
Minimum Humidity 31    
Precipitation  
Precipitation 0.00 in 0.15 in 2.20 in (1945)
Month to date precipitation 0.18 1.89  
Year to date precipitation 33.16 31.44  
Sea Level Pressure  
Sea Level Pressure 30.08 in    
Wind  
Wind Speed 6 mph (NNE)    
Max Wind Speed 15 mph    
Max Gust Speed 20 mph    
Visibility 10 miles    
Events      
T = Trace of Precipitation, MM = Missing Value Source: NWS Daily Summary

Daily Weather History Graph

Daily Weather History Graph

Search for Another Location

Airport:

Trip Planner

Search our weather history database for the weather conditions in past years. The results will help you decide how hot, cold, wet, or windy it might be!

Date:

Astronomy

Sep. 13, 2013 Rise Set
Actual Time 6:47 AM CDT 7:17 PM CDT
Civil Twilight 6:20 AM CDT 7:44 PM CDT
Nautical Twilight 5:49 AM CDT 8:15 PM CDT
Astronomical Twilight 5:17 AM CDT 8:47 PM CDT
Moon 3:04 PM CDT (9/13) 12:21 AM CDT (9/13)
Length of Visible Light 13h 23m
Length of Day
12h 30m
First Quarter, 61% of the Moon is Illuminated
Sep 13
First Quarter
Sep 19
Full
Sep 26
Last Quarter
Oct 4
New
Oct 11
First Quarter

Hourly Weather History & Observations

Time (CDT) Temp. Dew Point Humidity Pressure Visibility Wind Dir Wind Speed Gust Speed Precip Events Conditions
12:53 AM 63.0 °F 46.9 °F 56% 30.07 in 10.0 mi North 3.5 mph - N/A   Clear
1:53 AM 62.1 °F 46.9 °F 58% 30.07 in 10.0 mi North 4.6 mph - N/A   Clear
2:53 AM 55.9 °F 46.9 °F 72% 30.08 in 10.0 mi NNW 3.5 mph - N/A   Clear
3:53 AM 57.0 °F 46.9 °F 69% 30.08 in 10.0 mi Calm Calm - N/A   Clear
4:53 AM 55.0 °F 46.9 °F 74% 30.09 in 10.0 mi Calm Calm - N/A   Clear
5:53 AM 50.0 °F 46.0 °F 86% 30.10 in 10.0 mi Calm Calm - N/A   Clear
6:53 AM 51.1 °F 46.9 °F 86% 30.11 in 10.0 mi North 3.5 mph - N/A   Clear
7:53 AM 57.9 °F 50.0 °F 75% 30.12 in 10.0 mi North 4.6 mph - N/A   Clear
8:53 AM 64.0 °F 50.0 °F 60% 30.12 in 10.0 mi NE 10.4 mph - N/A   Clear
9:53 AM 69.1 °F 48.9 °F 49% 30.12 in 10.0 mi NNE 9.2 mph - N/A   Clear
10:53 AM 72.0 °F 46.9 °F 41% 30.12 in 10.0 mi NNE 9.2 mph - N/A   Clear
11:53 AM 75.0 °F 46.9 °F 37% 30.11 in 10.0 mi NNE 9.2 mph - N/A   Clear
12:53 PM 75.9 °F 46.0 °F 35% 30.09 in 10.0 mi North 11.5 mph 17.3 mph N/A   Clear
1:53 PM 75.9 °F 45.0 °F 33% 30.07 in 10.0 mi Variable 5.8 mph - N/A   Clear
2:53 PM 77.0 °F 45.0 °F 32% 30.06 in 10.0 mi NE 6.9 mph - N/A   Clear
3:53 PM 78.1 °F 46.0 °F 32% 30.04 in 10.0 mi NE 6.9 mph - N/A   Clear
4:53 PM 75.9 °F 46.9 °F 36% 30.04 in 10.0 mi NNE 11.5 mph - N/A   Clear
5:53 PM 73.9 °F 48.0 °F 40% 30.04 in 10.0 mi NNE 10.4 mph - N/A   Clear
6:53 PM 70.0 °F 48.0 °F 46% 30.04 in 10.0 mi ENE 5.8 mph - N/A   Clear
7:53 PM 63.0 °F 48.0 °F 58% 30.05 in 10.0 mi NE 3.5 mph - N/A   Clear
8:53 PM 60.1 °F 46.9 °F 62% 30.07 in 10.0 mi NE 6.9 mph - N/A   Clear
9:53 PM 59.0 °F 46.0 °F 62% 30.08 in 10.0 mi ENE 5.8 mph - N/A   Clear
10:53 PM 57.9 °F 46.0 °F 65% 30.08 in 10.0 mi ENE 8.1 mph - N/A   Clear
11:53 PM 57.0 °F 45.0 °F 64% 30.08 in 10.0 mi ENE 8.1 mph - N/A   Clear